timestamp,wind_dir_avg,wind_spd_avg,wind_spd_max_dir,wind_spd_gust,battery_voltage,lat,long
2022-10-14 00:04:00+00:00,230.0,2.92,236.0,3.54,12.49,47.59359,-54.27349
2022-10-14 00:14:01+00:00,238.0,2.71,238.0,3.34,12.41,47.59359,-54.27349
2022-10-14 00:24:01+00:00,248.0,2.34,242.0,2.72,12.41,47.59359,-54.27349
2022-10-14 00:34:01+00:00,254.0,2.44,255.0,2.94,12.41,47.59359,-54.27349
2022-10-14 00:44:01+00:00,246.0,2.28,249.0,2.52,12.41,47.59359,-54.27349
2022-10-14 00:54:01+00:00,257.0,1.69,262.0,2.06,12.41,47.59359,-54.27349
2022-10-14 01:04:01+00:00,255.0,1.63,264.0,1.98,12.41,47.59359,-54.27349
2022-10-14 01:14:00+00:00,284.0,2.35,288.0,2.54,12.41,47.59359,-54.27349
2022-10-14 01:24:00+00:00,290.0,1.84,297.0,2.28,12.41,47.59359,-54.27349
2022-10-14 01:34:00+00:00,266.0,2.2,270.0,2.59,12.41,47.59359,-54.27349
2022-10-14 01:44:00+00:00,278.0,2.06,277.0,2.58,12.41,47.59359,-54.27349
2022-10-14 01:54:00+00:00,268.0,1.7,268.0,1.89,12.41,47.59359,-54.27349
2022-10-14 02:04:00+00:00,259.0,2.42,257.0,2.77,12.41,47.59359,-54.27349
2022-10-14 02:14:00+00:00,251.0,2.31,254.0,2.59,12.41,47.59359,-54.27349
2022-10-14 02:24:00+00:00,255.0,2.31,255.0,2.69,12.41,47.59359,-54.27349
2022-10-14 02:34:00+00:00,267.0,3.05,265.0,3.27,12.41,47.59359,-54.27349
2022-10-14 02:44:00+00:00,274.0,3.05,273.0,3.36,12.41,47.59359,-54.27349
2022-10-14 02:54:00+00:00,276.0,3.29,283.0,3.73,12.41,47.59359,-54.27349
2022-10-14 03:04:00+00:00,258.0,3.67,256.0,4.09,12.41,47.59359,-54.27349
2022-10-14 03:14:01+00:00,251.0,4.25,246.0,4.7,12.41,47.59359,-54.27349
2022-10-14 03:24:01+00:00,247.0,3.76,245.0,4.06,12.41,47.59359,-54.27349
2022-10-14 03:34:01+00:00,248.0,3.5,248.0,3.97,12.41,47.59359,-54.27349
2022-10-14 03:44:01+00:00,249.0,2.85,248.0,3.22,12.41,47.59359,-54.27349
2022-10-14 03:54:01+00:00,254.0,2.57,260.0,2.99,12.41,47.59359,-54.27349
2022-10-14 04:04:01+00:00,270.0,2.36,269.0,2.59,12.41,47.59359,-54.27349
2022-10-14 04:14:00+00:00,271.0,2.41,272.0,2.98,12.41,47.59359,-54.27349
2022-10-14 04:24:00+00:00,287.0,1.82,291.0,2.09,12.41,47.59359,-54.27349
2022-10-14 04:34:00+00:00,244.0,1.48,249.0,1.77,12.41,47.59359,-54.27349
2022-10-14 04:44:00+00:00,237.0,2.02,239.0,2.46,12.41,47.59359,-54.27349
2022-10-14 04:54:00+00:00,246.0,2.06,248.0,2.42,12.41,47.59359,-54.27349
2022-10-14 05:04:00+00:00,251.0,1.4,241.0,1.77,12.41,47.59359,-54.27349
2022-10-14 05:14:00+00:00,297.0,1.35,290.0,1.66,12.41,47.59359,-54.27349
2022-10-14 05:24:00+00:00,335.0,1.73,327.0,1.93,12.41,47.59359,-54.27349
2022-10-14 05:34:00+00:00,1.0,2.16,5.0,2.53,12.41,47.59359,-54.27349
2022-10-14 05:44:00+00:00,13.0,2.25,17.0,2.57,12.41,47.59359,-54.27349
2022-10-14 05:54:00+00:00,6.0,1.22,350.0,1.75,12.41,47.59359,-54.27349
2022-10-14 06:04:00+00:00,14.0,1.4,24.0,1.74,12.41,47.59359,-54.27349
2022-10-14 06:14:01+00:00,7.0,1.6,6.0,1.96,12.33,47.59359,-54.27349
2022-10-14 06:24:01+00:00,344.0,2.78,344.0,3.1,12.33,47.59359,-54.27349
2022-10-14 06:34:01+00:00,339.0,2.85,338.0,3.24,12.33,47.59359,-54.27349
2022-10-14 06:44:01+00:00,344.0,2.76,347.0,3.12,12.33,47.59359,-54.27349
2022-10-14 06:54:01+00:00,346.0,3.3,342.0,3.66,12.33,47.59359,-54.27349
2022-10-14 07:04:01+00:00,341.0,3.48,337.0,3.87,12.33,47.59359,-54.27349
2022-10-14 07:14:01+00:00,345.0,3.06,348.0,3.27,12.33,47.59359,-54.27349
2022-10-14 07:24:01+00:00,334.0,2.69,335.0,2.98,12.33,47.59359,-54.27349
2022-10-14 07:34:01+00:00,343.0,3.28,343.0,3.56,12.33,47.59359,-54.27349
2022-10-14 07:44:01+00:00,342.0,3.07,342.0,3.42,12.33,47.59359,-54.27349
2022-10-14 07:54:01+00:00,342.0,2.51,341.0,2.88,12.33,47.59359,-54.27349
2022-10-14 08:04:01+00:00,6.0,2.63,4.0,3.02,12.33,47.59359,-54.27349
2022-10-14 08:14:01+00:00,10.0,1.96,9.0,2.25,12.25,47.59359,-54.27349
2022-10-14 08:24:01+00:00,352.0,2.09,356.0,2.41,12.25,47.59359,-54.27349
2022-10-14 08:34:01+00:00,337.0,2.64,334.0,2.88,12.25,47.59359,-54.27349
2022-10-14 08:44:01+00:00,333.0,2.55,334.0,2.87,12.25,47.59359,-54.27349
2022-10-14 08:54:01+00:00,341.0,2.08,341.0,2.47,12.25,47.59359,-54.27349
2022-10-14 09:04:01+00:00,312.0,1.4,306.0,1.9,12.25,47.59359,-54.27349
2022-10-14 09:14:01+00:00,256.0,1.17,250.0,1.39,12.25,47.59359,-54.27349
2022-10-14 09:24:01+00:00,286.0,2.25,288.0,2.47,12.25,47.59359,-54.27349
2022-10-14 09:34:01+00:00,295.0,3.67,298.0,3.95,12.25,47.59359,-54.27349
2022-10-14 09:44:01+00:00,296.0,3.55,301.0,4.04,12.25,47.59359,-54.27349
2022-10-14 09:54:01+00:00,280.0,2.57,280.0,2.88,12.25,47.59359,-54.27349
2022-10-14 10:04:01+00:00,296.0,2.97,303.0,3.57,12.25,47.59359,-54.27349
2022-10-14 10:14:01+00:00,306.0,3.35,308.0,3.82,12.25,47.59359,-54.27349
2022-10-14 10:24:01+00:00,319.0,3.16,324.0,3.56,12.25,47.59359,-54.27349
2022-10-14 10:34:01+00:00,324.0,3.55,322.0,4.05,12.25,47.59359,-54.27349
2022-10-14 10:44:01+00:00,333.0,3.46,332.0,3.75,12.25,47.59359,-54.27349
2022-10-14 10:54:01+00:00,328.0,3.65,328.0,4.01,12.25,47.59359,-54.27349
2022-10-14 11:04:01+00:00,342.0,3.54,341.0,3.99,12.25,47.59359,-54.27349
2022-10-14 11:14:00+00:00,337.0,3.82,336.0,4.26,13.76,47.59359,-54.27349
2022-10-14 11:24:00+00:00,346.0,3.22,346.0,3.58,13.76,47.59359,-54.27349
2022-10-14 11:34:00+00:00,341.0,2.0,342.0,2.36,13.76,47.59359,-54.27349
2022-10-14 11:44:00+00:00,18.0,2.03,17.0,2.36,13.76,47.59359,-54.27349
2022-10-14 11:54:00+00:00,8.0,2.3,16.0,3.0,13.76,47.59359,-54.27349
2022-10-14 12:04:00+00:00,28.0,1.15,20.0,1.56,13.76,47.59359,-54.27349
2022-10-14 13:14:01+00:00,3.0,0.63,1.0,1.1,13.84,47.59359,-54.27349
2022-10-14 13:24:01+00:00,285.0,0.53,287.0,0.63,13.84,47.59359,-54.27349
2022-10-14 13:34:01+00:00,293.0,1.27,292.0,1.53,13.84,47.59359,-54.27349
2022-10-14 13:44:01+00:00,302.0,1.2,302.0,1.75,13.84,47.59359,-54.27349
2022-10-14 13:54:01+00:00,281.0,0.76,268.0,1.03,13.84,47.59359,-54.27349
2022-10-14 14:04:01+00:00,241.0,0.6,229.0,0.8,13.84,47.59359,-54.27349
2022-10-14 14:14:00+00:00,171.0,0.35,162.0,0.85,14.48,47.59359,-54.27349
2022-10-14 14:24:00+00:00,147.0,1.5,146.0,1.83,14.48,47.59359,-54.27349
2022-10-14 14:34:00+00:00,135.0,1.29,132.0,1.67,14.48,47.59359,-54.27349
2022-10-14 14:44:00+00:00,160.0,1.17,173.0,1.53,14.48,47.59359,-54.27349
2022-10-14 14:54:00+00:00,184.0,0.81,200.0,1.2,14.48,47.59359,-54.27349
2022-10-14 15:04:00+00:00,253.0,0.37,258.0,0.72,14.48,47.59359,-54.27349
2022-10-14 15:14:01+00:00,227.0,0.71,240.0,0.93,13.92,47.59359,-54.27349
2022-10-14 15:24:01+00:00,236.0,1.46,233.0,1.67,13.92,47.59359,-54.27349
2022-10-14 15:34:01+00:00,221.0,3.6,221.0,3.98,13.92,47.59359,-54.27349
2022-10-14 15:44:01+00:00,222.0,3.99,218.0,4.48,13.92,47.59359,-54.27349
2022-10-14 15:54:01+00:00,211.0,4.35,212.0,4.74,13.92,47.59359,-54.27349
2022-10-14 16:04:01+00:00,213.0,4.16,216.0,4.56,13.92,47.59359,-54.27349
2022-10-14 16:14:00+00:00,214.0,4.88,213.0,5.2,14.08,47.59359,-54.27349
2022-10-14 16:24:00+00:00,207.0,4.62,208.0,5.01,14.08,47.59359,-54.27349
2022-10-14 16:34:00+00:00,202.0,4.79,202.0,5.42,14.08,47.59359,-54.27349
2022-10-14 16:44:00+00:00,209.0,5.71,208.0,6.14,14.08,47.59359,-54.27349
2022-10-14 16:54:00+00:00,200.0,5.69,202.0,6.2,14.08,47.59359,-54.27349
2022-10-14 17:04:00+00:00,200.0,6.27,201.0,6.68,14.08,47.59359,-54.27349
2022-10-14 17:14:00+00:00,206.0,6.09,209.0,6.53,14.08,47.59359,-54.27349
2022-10-14 17:24:00+00:00,202.0,6.15,202.0,6.6,14.08,47.59359,-54.27349
2022-10-14 17:34:00+00:00,202.0,6.27,206.0,6.9,14.08,47.59359,-54.27349
2022-10-14 17:44:00+00:00,201.0,6.21,199.0,6.6,14.08,47.59359,-54.27349
2022-10-14 17:54:00+00:00,204.0,5.9,206.0,6.27,14.08,47.59359,-54.27349
2022-10-14 18:04:00+00:00,204.0,6.75,204.0,7.08,14.08,47.59359,-54.27349
2022-10-14 18:14:00+00:00,202.0,5.91,202.0,6.79,14.16,47.59359,-54.27349
2022-10-14 18:24:00+00:00,205.0,6.73,205.0,7.21,14.16,47.59359,-54.27349
2022-10-14 18:34:00+00:00,203.0,6.1,201.0,6.79,14.16,47.59359,-54.27349
2022-10-14 18:44:00+00:00,205.0,6.05,211.0,6.69,14.16,47.59359,-54.27349
2022-10-14 18:54:00+00:00,206.0,6.05,206.0,6.64,14.16,47.59359,-54.27349
2022-10-14 19:04:00+00:00,206.0,6.37,207.0,6.76,14.16,47.59359,-54.27349
2022-10-14 19:14:01+00:00,210.0,6.06,209.0,6.63,13.84,47.59359,-54.27349
2022-10-14 19:24:01+00:00,215.0,6.44,209.0,8.14,13.84,47.59359,-54.27349
2022-10-14 19:34:01+00:00,215.0,6.36,214.0,7.1,13.84,47.59359,-54.27349
2022-10-14 19:44:01+00:00,217.0,6.53,215.0,7.21,13.84,47.59359,-54.27349
2022-10-14 19:54:01+00:00,214.0,7.34,224.0,8.06,13.84,47.59359,-54.27349
2022-10-14 20:04:01+00:00,216.0,6.53,210.0,7.24,13.84,47.59359,-54.27349
2022-10-14 20:14:00+00:00,216.0,6.89,217.0,7.64,13.76,47.59359,-54.27349
2022-10-14 20:24:00+00:00,214.0,6.87,213.0,7.37,13.76,47.59359,-54.27349
2022-10-14 20:34:00+00:00,218.0,6.74,217.0,7.41,13.76,47.59359,-54.27349
2022-10-14 20:44:00+00:00,211.0,7.57,212.0,8.32,13.76,47.59359,-54.27349
2022-10-14 20:54:00+00:00,217.0,6.8,218.0,7.83,13.76,47.59359,-54.27349
2022-10-14 21:04:00+00:00,223.0,7.56,232.0,8.48,13.76,47.59359,-54.27349
2022-10-14 21:14:00+00:00,227.0,6.63,217.0,7.64,13.05,47.59359,-54.27349
2022-10-14 21:24:00+00:00,226.0,5.67,218.0,6.72,13.05,47.59359,-54.27349
2022-10-14 21:34:00+00:00,233.0,6.33,234.0,7.33,13.05,47.59359,-54.27349
2022-10-14 21:44:00+00:00,232.0,6.16,232.0,7.05,13.05,47.59359,-54.27349
2022-10-14 21:54:00+00:00,232.0,4.94,231.0,5.72,13.05,47.59359,-54.27349
2022-10-14 22:04:00+00:00,233.0,5.84,232.0,6.97,13.05,47.59359,-54.27349
2022-10-14 22:14:00+00:00,228.0,5.17,229.0,6.46,12.57,47.59359,-54.27349
2022-10-14 22:24:00+00:00,230.0,5.52,231.0,6.12,12.57,47.59359,-54.27349
2022-10-14 22:34:00+00:00,233.0,4.96,245.0,5.9,12.57,47.59359,-54.27349
2022-10-14 22:44:00+00:00,234.0,4.42,232.0,4.91,12.57,47.59359,-54.27349
2022-10-14 22:54:00+00:00,237.0,4.38,242.0,4.88,12.57,47.59359,-54.27349
2022-10-14 23:04:00+00:00,240.0,4.3,242.0,5.07,12.57,47.59359,-54.27349
2022-10-14 23:14:00+00:00,242.0,3.79,241.0,4.43,12.57,47.59359,-54.27349
2022-10-14 23:24:00+00:00,239.0,3.37,237.0,3.82,12.57,47.59359,-54.27349
2022-10-14 23:34:00+00:00,247.0,4.35,252.0,4.99,12.57,47.59359,-54.27349
2022-10-14 23:44:00+00:00,240.0,4.83,238.0,5.32,12.57,47.59359,-54.27349
2022-10-14 23:54:00+00:00,244.0,4.76,245.0,5.26,12.57,47.59359,-54.27349
